Date String (YYYY-MM-DD hh:mm:ss) UTC,Instrument flags,Ambient pressure (hPa),Sample flow (lpm),Bypass flow (lpm),Sample temperature (°C),Ambient temperature (°C),ASC tube jacket temperature (°C),LED temperature (°C),Box temperature (°C),Sample RH (%),Span deviation,Mass concentration (μg/m³),Mass concentration (μg/m³),Mass concentration (μg/m³)
DateTimeUTC,F1_M11,P_M11,Q1_M11,Q2_M11,T1_M11,T2_M11,T3_M11,T4_M11,T5_M11,U1_M11,ZSPAN_M11,X0_M11,X2_M11,X1_M11
2021-10-16 01:00:00,,0832.6,5.00,0.00,28.9,28.0,00.0,38.0,30.6,07.6,0000.0,0009.17,0003.27,0002.42
2021-10-16 01:01:00,,0832.6,5.01,0.00,28.9,28.0,00.0,38.0,30.6,07.6,0000.0,0008.58,0003.28,0002.45
2021-10-16 01:02:00,,0832.6,4.99,0.00,28.9,28.0,00.0,38.0,30.6,07.6,0000.0,0008.17,0003.29,0002.50
2021-10-16 01:03:00,,0832.6,5.00,0.00,28.9,28.0,00.0,38.0,30.6,07.6,0000.0,0007.17,0003.33,0002.60
2021-10-16 01:04:00,,0832.7,5.01,0.00,28.9,28.0,00.0,38.0,30.6,07.6,0000.0,0007.23,0003.41,0002.70
2021-10-16 01:05:00,,0832.7,4.99,0.00,28.9,28.0,00.0,38.0,30.6,07.6,0000.0,0008.08,0003.48,0002.81
2021-10-16 01:06:00,,0832.6,5.01,0.00,28.9,28.0,00.0,38.0,30.6,07.7,0000.0,0008.46,0003.54,0002.91
2021-10-16 01:07:00,,0832.6,4.99,0.00,28.9,28.0,00.0,38.0,30.6,07.8,0000.0,0008.89,0003.59,0002.96
2021-10-16 01:08:00,,0832.6,5.00,0.00,28.9,28.0,00.0,38.0,30.6,07.8,0000.0,0009.16,0003.59,0003.00
2021-10-16 01:09:00,,0832.6,5.01,0.00,28.9,28.0,00.0,38.0,30.6,07.7,0000.0,0009.64,0003.63,0003.03
2021-10-16 01:10:00,,0832.6,4.98,0.00,28.9,28.0,00.0,37.9,30.6,07.7,0000.0,0009.70,0003.63,0003.05
2021-10-16 01:11:00,,0832.7,5.01,0.00,28.9,28.0,00.0,37.9,30.6,07.7,0000.0,0009.73,0003.63,0003.06
2021-10-16 01:12:00,,0832.7,5.00,0.00,28.8,28.0,00.0,37.9,30.6,07.7,0000.0,0009.74,0003.64,0003.07
2021-10-16 01:13:00,,0832.7,4.99,0.00,28.8,28.0,00.0,37.9,30.5,07.8,0000.0,0009.98,0003.66,0003.08
2021-10-16 01:14:00,,0832.8,5.00,0.00,28.8,27.9,00.0,37.9,30.6,07.8,0000.0,0010.00,0003.67,0003.06
2021-10-16 01:15:00,,0832.8,4.99,0.00,28.8,27.9,00.0,37.9,30.5,07.8,0000.0,0010.07,0003.68,0003.03
2021-10-16 01:16:00,,0832.8,5.01,0.00,28.8,27.9,00.0,37.9,30.5,07.9,0000.0,0009.69,0003.65,0002.99
2021-10-16 01:17:00,,0832.8,5.01,0.00,28.8,27.9,00.0,37.9,30.5,07.8,0000.0,0009.83,0003.63,0002.98
2021-10-16 01:18:00,,0832.8,4.99,0.00,28.8,27.9,00.0,37.9,30.5,07.8,0000.0,0009.71,0003.68,0003.06
2021-10-16 01:19:00,,0832.8,5.02,0.00,28.8,27.9,00.0,37.9,30.5,07.8,0000.0,0009.73,0003.76,0003.14
2021-10-16 01:20:00,,0832.7,4.99,0.00,28.8,27.9,00.0,37.9,30.5,07.8,0000.0,0009.71,0003.81,0003.20
2021-10-16 01:21:00,,0832.7,5.01,0.00,28.8,27.9,00.0,37.9,30.6,07.7,0000.0,0010.02,0003.85,0003.25
2021-10-16 01:22:00,,0832.7,4.99,0.00,28.8,27.9,00.0,37.9,30.6,07.7,0000.0,0010.13,0003.88,0003.31
2021-10-16 01:23:00,,0832.8,5.00,0.00,28.8,27.9,00.0,37.9,30.6,07.7,0000.0,0010.05,0003.92,0003.37
2021-10-16 01:24:00,,0832.8,4.99,0.00,28.8,27.9,00.0,37.9,30.6,07.7,0000.0,0010.09,0003.99,0003.42
2021-10-16 01:25:00,,0832.7,5.01,0.00,28.8,27.9,00.0,37.9,30.6,07.7,0000.0,0010.94,0004.03,0003.47
2021-10-16 01:26:00,,0832.7,4.99,0.00,28.8,27.9,00.0,37.9,30.6,07.8,0000.0,0011.24,0004.06,0003.52
2021-10-16 01:27:00,,0832.7,5.02,0.00,28.8,27.9,00.0,37.9,30.5,07.8,0000.0,0010.77,0004.10,0003.56
2021-10-16 01:28:00,,0832.7,4.99,0.00,28.8,27.9,00.0,37.9,30.5,07.8,0000.0,0010.27,0004.15,0003.59
2021-10-16 01:29:00,,0832.7,5.01,0.00,28.8,27.9,00.0,37.9,30.6,07.7,0000.0,0010.14,0004.17,0003.62
2021-10-16 01:30:00,,0832.7,5.01,0.00,28.8,27.9,00.0,37.9,30.6,07.7,0000.0,0009.99,0004.16,0003.65
2021-10-16 01:31:00,,0832.7,5.01,0.00,28.8,27.9,00.0,37.9,30.6,07.8,0000.0,0009.64,0004.18,0003.69
2021-10-16 01:32:00,,0832.7,5.01,0.00,28.8,27.9,00.0,37.9,30.6,07.8,0000.0,0009.60,0004.25,0003.72
2021-10-16 01:33:00,,0832.8,5.00,0.00,28.8,27.9,00.0,37.9,30.6,07.8,0000.0,0009.55,0004.28,0003.73
2021-10-16 01:34:00,,0832.8,4.99,0.00,28.8,27.9,00.0,37.9,30.5,07.8,0000.0,0009.86,0004.30,0003.74
2021-10-16 01:35:00,,0832.8,5.00,0.00,28.8,27.9,00.0,37.9,30.5,07.8,0000.0,0009.88,0004.30,0003.75
2021-10-16 01:36:00,,0832.7,5.01,0.00,28.8,27.9,00.0,37.9,30.5,07.8,0000.0,0009.28,0004.30,0003.76
2021-10-16 01:37:00,,0832.7,5.00,0.00,28.8,27.9,00.0,37.9,30.6,07.8,0000.0,0008.44,0004.30,0003.79
2021-10-16 01:38:00,,0832.8,5.00,0.00,28.8,27.9,00.0,37.9,30.6,07.8,0000.0,0008.36,0004.32,0003.82
2021-10-16 01:39:00,,0832.8,4.99,0.00,28.8,27.9,00.0,37.9,30.6,07.8,0000.0,0008.37,0004.33,0003.85
2021-10-16 01:40:00,,0832.8,5.00,0.00,28.8,27.9,00.0,37.9,30.6,07.7,0000.0,0008.43,0004.39,0003.88
2021-10-16 01:41:00,,0832.7,5.00,0.00,28.8,27.9,00.0,37.8,30.5,07.8,0000.0,0009.83,0004.42,0003.89
2021-10-16 01:42:00,,0832.7,4.99,0.00,28.8,27.9,00.0,37.8,30.5,07.8,0000.0,0010.56,0004.44,0003.91
2021-10-16 01:43:00,,0832.8,5.01,0.00,28.7,27.9,00.0,37.8,30.5,07.7,0000.0,0010.53,0004.43,0003.92
2021-10-16 01:44:00,,0832.8,5.00,0.00,28.7,27.9,00.0,37.8,30.5,07.7,0000.0,0010.53,0004.42,0003.92
2021-10-16 01:45:00,,0832.7,5.00,0.00,28.7,27.9,00.0,37.8,30.5,07.7,0000.0,0010.27,0004.40,0003.91
2021-10-16 01:46:00,,0832.7,4.98,0.00,28.7,27.9,00.0,37.8,30.5,07.6,0000.0,0010.12,0004.38,0003.91
2021-10-16 01:47:00,,0832.8,5.00,0.00,28.7,27.8,00.0,37.8,30.4,07.6,0000.0,0010.05,0004.32,0003.87
2021-10-16 01:48:00,,0832.8,5.01,0.00,28.7,27.8,00.0,37.8,30.4,07.7,0000.0,0010.43,0004.32,0003.85
2021-10-16 01:49:00,,0832.8,5.00,0.00,28.7,27.8,00.0,37.8,30.4,07.7,0000.0,0011.28,0004.32,0003.84
2021-10-16 01:50:00,,0832.8,5.00,0.00,28.7,27.8,00.0,37.8,30.4,07.7,0000.0,0011.62,0004.32,0003.83
2021-10-16 01:51:00,,0832.8,4.99,0.00,28.7,27.8,00.0,37.8,30.4,07.7,0000.0,0011.99,0004.29,0003.81
2021-10-16 01:52:00,,0832.8,5.01,0.00,28.7,27.8,00.0,37.8,30.4,07.6,0000.0,0011.53,0004.21,0003.77
2021-10-16 01:53:00,,0832.8,4.99,0.00,28.7,27.8,00.0,37.8,30.4,07.6,0000.0,0010.64,0004.19,0003.73
2021-10-16 01:54:00,,0832.8,5.00,0.00,28.6,27.8,00.0,37.8,30.4,07.6,0000.0,0010.47,0004.11,0003.68
2021-10-16 01:55:00,,0832.9,4.99,0.00,28.6,27.7,00.0,37.8,30.3,07.5,0000.0,0010.85,0004.06,0003.62
2021-10-16 01:56:00,,0832.8,5.00,0.00,28.6,27.7,00.0,37.8,30.3,07.6,0000.0,0010.81,0004.02,0003.59
2021-10-16 01:57:00,,0832.8,5.01,0.00,28.6,27.7,00.0,37.7,30.2,07.6,0000.0,0010.70,0003.98,0003.55
2021-10-16 01:58:00,,0832.8,5.00,0.00,28.5,27.6,00.0,37.7,30.2,07.7,0000.0,0011.04,0003.97,0003.52
2021-10-16 01:59:00,,0832.8,5.01,0.00,28.5,27.6,00.0,37.7,30.2,07.7,0000.0,0011.13,0003.95,0003.50
